TimeEST,TemperatureF,Dew PointF,Humidity,Sea Level PressureIn,VisibilityMPH,Wind Direction,Wind SpeedMPH,Gust SpeedMPH,PrecipitationIn,Events,Conditions,WindDirDegrees,DateUTC
12:04 AM,42.8,39.2,87,30.16,3.0,Calm,Calm,-,N/A,,Clear,0,2012-11-21 05:04:00
12:13 AM,42.8,39.2,87,30.16,2.5,Calm,Calm,-,N/A,,Clear,0,2012-11-21 05:13:00
12:53 AM,41.0,37.9,89,30.17,1.8,Calm,Calm,-,N/A,,Clear,0,2012-11-21 05:53:00
1:23 AM,39.2,35.6,87,30.15,0.5,Calm,Calm,-,N/A,Fog,Fog,0,2012-11-21 06:23:00
1:28 AM,39.2,37.4,93,30.15,0.2,Calm,Calm,-,N/A,Fog,Fog,0,2012-11-21 06:28:00
1:49 AM,37.4,35.6,93,30.16,0.2,Calm,Calm,-,N/A,Fog,Fog,0,2012-11-21 06:49:00
1:53 AM,36.0,35.1,97,30.18,0.2,Calm,Calm,-,N/A,Fog,Fog,0,2012-11-21 06:53:00
2:23 AM,35.6,33.8,93,30.17,0.2,Calm,Calm,-,N/A,Fog,Fog,0,2012-11-21 07:23:00
2:53 AM,33.1,32.0,96,30.20,0.2,Calm,Calm,-,N/A,Fog,Fog,0,2012-11-21 07:53:00
3:16 AM,35.6,32.0,87,30.18,0.2,Calm,Calm,-,N/A,Fog,Fog,0,2012-11-21 08:16:00
3:31 AM,35.6,33.8,93,30.19,0.2,Calm,Calm,-,N/A,Fog,Fog,0,2012-11-21 08:31:00
3:43 AM,33.8,32.0,93,30.19,0.2,Calm,Calm,-,N/A,Fog,Fog,0,2012-11-21 08:43:00
3:53 AM,35.1,33.1,92,30.20,0.2,Calm,Calm,-,N/A,Fog,Fog,0,2012-11-21 08:53:00
4:53 AM,37.0,36.0,96,30.21,0.2,Calm,Calm,-,N/A,Fog,Fog,0,2012-11-21 09:53:00
5:53 AM,37.0,36.0,96,30.20,0.2,SSE,3.5,-,N/A,Fog,Fog,160,2012-11-21 10:53:00
6:53 AM,36.0,35.1,97,30.22,0.2,Calm,Calm,-,N/A,Fog,Fog,0,2012-11-21 11:53:00
7:53 AM,36.0,35.1,97,30.24,0.2,Calm,Calm,-,N/A,Fog,Fog,0,2012-11-21 12:53:00
8:53 AM,36.0,35.1,97,30.25,0.2,Calm,Calm,-,N/A,Fog,Fog,0,2012-11-21 13:53:00
9:53 AM,37.0,37.0,100,30.26,0.2,Calm,Calm,-,N/A,Fog,Fog,0,2012-11-21 14:53:00
10:53 AM,39.9,39.0,97,30.28,0.2,Calm,Calm,-,N/A,Fog,Fog,0,2012-11-21 15:53:00
11:53 AM,42.1,41.0,96,30.27,0.2,Calm,Calm,-,N/A,Fog,Fog,0,2012-11-21 16:53:00
12:11 PM,42.8,42.8,100,30.25,0.2,Calm,Calm,-,N/A,Fog,Fog,0,2012-11-21 17:11:00
12:53 PM,44.1,43.0,96,30.25,0.2,SSW,4.6,-,N/A,Fog,Fog,210,2012-11-21 17:53:00
1:13 PM,44.6,42.8,93,30.23,0.8,SW,4.6,-,N/A,,Overcast,220,2012-11-21 18:13:00
1:20 PM,44.6,42.8,93,30.23,1.2,SSW,5.8,-,N/A,,Overcast,210,2012-11-21 18:20:00
1:53 PM,46.0,44.1,93,30.24,1.5,SSW,4.6,-,N/A,,Overcast,210,2012-11-21 18:53:00
2:12 PM,48.2,44.6,87,30.21,2.0,SW,4.6,-,N/A,,Mostly Cloudy,220,2012-11-21 19:12:00
2:24 PM,50.0,44.6,82,30.20,2.5,SW,3.5,-,N/A,,Haze,220,2012-11-21 19:24:00
3:53 PM,53.1,45.0,74,30.21,3.0,SW,3.5,-,N/A,,Haze,230,2012-11-21 20:53:00
4:53 PM,50.0,43.0,77,30.19,3.0,SSW,3.5,-,N/A,,Haze,200,2012-11-21 21:53:00
5:53 PM,48.0,42.1,80,30.19,4.0,South,3.5,-,N/A,,Haze,170,2012-11-21 22:53:00
6:49 PM,44.6,41.0,87,30.18,2.5,SSE,3.5,-,N/A,,Clear,160,2012-11-21 23:49:00
6:53 PM,44.1,41.0,89,30.20,2.5,Calm,Calm,-,N/A,,Clear,0,2012-11-21 23:53:00
7:30 PM,39.2,39.2,100,30.17,1.5,SSE,3.5,-,N/A,,Clear,150,2012-11-22 00:30:00
7:53 PM,42.1,39.0,89,30.19,2.0,South,3.5,-,N/A,,Clear,170,2012-11-22 00:53:00
8:53 PM,41.0,39.0,93,30.19,2.0,South,5.8,-,N/A,,Clear,170,2012-11-22 01:53:00
9:00 PM,41.0,39.2,93,30.17,1.8,South,5.8,-,N/A,,Clear,170,2012-11-22 02:00:00
9:53 PM,41.0,39.0,93,30.19,1.8,South,5.8,-,N/A,,Clear,170,2012-11-22 02:53:00
10:53 PM,41.0,39.0,93,30.18,1.8,South,4.6,-,N/A,,Clear,170,2012-11-22 03:53:00
11:53 PM,41.0,39.0,93,30.18,2.0,South,6.9,-,N/A,,Clear,170,2012-11-22 04:53:00